Location: Unspecified
(43.0000°N, 0.0000°E)
Time: 00:20:41
(UTC+00:00)

PicSat - Pass Details

Date: 19 July 2019
Orbit: 486 x 500 km, 97.5° (Epoch: 20 August)

Event Time Altitude Azimuth Distance (km) Brightness Sun altitude
Exits shadow 20:52:45 18° 111° (ESE) 1,295 ? -12.2°
Maximum altitude 20:54:32 25° 69° (ENE) 1,026 ? -12.5°
Drops below altitude 10° 20:57:35 10° 13° (NNE) 1,700 ? -12.9°
Sets 20:59:53 0° 0° (N) 2,584 ? -13.2°
